Weather in Sant Lluís

Spain     39°50′59″N   4°15′34″E
temp.,
°C
wind,
m/s
gust,
m/s
humid.,
%
clouds,
%
prec.,
mm/h
press.,
hPa
HPBL,
m
6 march, sat
sat601:00+12n22670 0.0 1020162
04:00+12nne33700 0.0 1020191
07:00+13nne347127 0.0 1021298
10:00+13ene557971 0.0 1022487
13:00+14ene447779 0.0 1023399
16:00+14ne557491 0.0 1022328
19:00+13ne567960 0.0 1021392
22:00+14ene348413 0.0 1023307
7 march, sun
sun701:00+13e227916 0.0 1022221
04:00+13ene2378100 0.0 1020243
07:00+13ene558096 0.0 1020425
10:00+13e4577100 0.1 1020484
13:00+13ene5687100 1.7 1020322
16:00+12ne6690100 0.4 1017310
19:00+12n6690100 2.3 1016441
22:00+13nne6787100 0.6 1017441
8 march, mon
mon801:00+12nne6787100 0.8 1016404
04:00+12nne8890100 0.1 1014391
07:00+12nne8989100 0.1 1014540
10:00+13ne8987100 0.3 1015648
13:00+13ne8983100 0.3 1015729
16:00+13nne91178100 0.1 1014803
19:00+13nne8979100 0.1 1015699
22:00+13nne7973100 0.0 1016754
9 march, tue
tue901:00+13n71071100 0.0 1016941
04:00+13n101276100 0.0 10161019
07:00+13n91178100 0.0 1016814
10:00+13nne101174100 0.0 1018964
13:00+13nne11126682 0.0 1019975
16:00+13nne9116130 0.0 1019916
19:00+13nne8106115 0.0 1019836
22:00+13n79580 0.0 1021844
10 march, wed
wed1001:00+13n68560 0.0 1022785
04:00+12nw22680 0.0 1021229
07:00+13w56640 0.0 1023963
10:00+13wnw67737 0.0 1024899
13:00+13wnw56684 0.0 1025816
16:00+13w44690 0.0 1025459
19:00+13w227030 0.0 1025307
22:00+13wnw227033 0.0 1026253